Starlink 11446

operational
NORAD ID: 62416 Int'l Des: 2024-249 Owner: SPXS Country: US Constellation: starlink
LEOCIRCULAR

Über Starlink 11446

Beschreibung wird geladen...

Live-Position

3D-Globus wird geladen...

Nächste Überflüge

Höhenverlauf

Altitude vs Time

uPlot chart will show altitude changes over time

Zweizeiliger Elementsatz

1 62416U 24249H 25258.06134552 .00170296 00000-0 12993-2 0 9999
2 62416 42.9997 145.8575 0002964 260.4377 99.6156 15.70917555 41866
Epoch: 15. Sept. 2025 • Age: 17 hours

Aktueller Status

Höhe 356.2 km
Geschwindigkeit 7.70 km/s
Subsatellitenpunkt -5.91°S, 132.94°W
Startdatum 23. Dez. 2024
Alter 0.7 years
Typ internet

Technische Details

Klassifizierung Payload
Masse 960.00 kg
Trockenmasse 910.00 kg
Gesamtmasse 960.00 kg
Länge 0.30 m
Durchmesser 4.10 m
Spannweite 29.00 m
Form Box + pan
Hersteller SPXS
Bus-Typ Starlink V2MD
Phasenstatus In Orbit
Besitzer/Staat SPXS/US

Große Konstellationen

Loading constellations...